Jamestown, NY

5:37 AM EDT on October 24, 2017 (GMT -0400)
Chautauqua County-Jamestown

Weather History for KJHW - October, 2012

Change the Weather History Date:

Friday, October 26, 2012

  Actual Average Record
Temperature  
Mean Temperature 56 °F -  
Max Temperature 69 °F 56 °F 78 °F (1989)
Min Temperature 44 °F 32 °F 15 °F (1987)
Degree Days  
Heating Degree Days 8    
Growing Degree Days 6 (Base 50)    
Moisture  
Dew Point 50 °F    
Average Humidity 80    
Maximum Humidity 93    
Minimum Humidity 56    
Precipitation  
Precipitation 0.41 in - - ()
Sea Level Pressure  
Sea Level Pressure 30.09 in    
Wind  
Wind Speed 11 mph (SSW)    
Max Wind Speed 17 mph    
Max Gust Speed 21 mph    
Visibility 9 miles    
Events      
Averages and records for this station are not official NWS values.
T = Trace of Precipitation, MM = Missing Value Source: NWS Daily Summary

Daily Weather History Graph

Daily Weather History Graph

Search for Another Location

Airport or City:

Trip Planner

Search our weather history database for the weather conditions in past years. The results will help you decide how hot, cold, wet, or windy it might be!

Date:

Astronomy

Oct. 26, 2012 Rise Set
Actual Time 7:43 AM EDT 6:18 PM EDT
Civil Twilight 7:14 AM EDT 6:46 PM EDT
Nautical Twilight 6:41 AM EDT 7:19 PM EDT
Astronomical Twilight 6:09 AM EDT 7:51 PM EDT
Moon 4:35 PM EDT (10/26) 4:35 AM EDT (10/26)
Length of Visible Light 11h 32m
Length of Day
10h 34m
Waxing Gibbous, 91% of the Moon is Illuminated
Oct 26
Waxing Gibbous
Oct 29
Full
Nov 6
Last Quarter
Nov 13
New
Nov 20
First Quarter

Hourly Weather History & Observations

Time (EDT) Temp. Windchill Dew Point Humidity Pressure Visibility Wind Dir Wind Speed Gust Speed Precip Events Conditions
12:15 AM 60.8 °F - 51.8 °F 72% 30.04 in 10.0 mi South 11.5 mph 17.3 mph N/A   Clear
12:35 AM 60.8 °F - 51.8 °F 72% 30.04 in 10.0 mi SSE 11.5 mph 19.6 mph N/A   Clear
1:15 AM 59.0 °F - 51.8 °F 77% 30.05 in 9.0 mi South 12.7 mph 18.4 mph N/A   Clear
1:35 AM 57.2 °F - 51.8 °F 82% 30.05 in 8.0 mi South 10.4 mph 17.3 mph N/A   Clear
1:55 AM 57.2 °F - 51.8 °F 82% 30.05 in 8.0 mi South 13.8 mph 17.3 mph N/A   Clear
2:15 AM 57.2 °F - 51.8 °F 82% 30.05 in 7.0 mi South 12.7 mph - N/A   Clear
2:35 AM 57.2 °F - 51.8 °F 82% 30.06 in 7.0 mi South 10.4 mph - N/A   Clear
2:55 AM 57.2 °F - 51.8 °F 82% 30.06 in 7.0 mi South 10.4 mph - N/A   Clear
3:15 AM 57.2 °F - 51.8 °F 82% 30.06 in 7.0 mi South 11.5 mph - N/A   Clear
3:35 AM 57.2 °F - 51.8 °F 82% 30.06 in 7.0 mi South 11.5 mph - N/A   Clear
3:55 AM 57.2 °F - 51.8 °F 82% 30.06 in 7.0 mi South 11.5 mph - N/A   Clear
4:15 AM 57.2 °F - 51.8 °F 82% 30.06 in 7.0 mi South 12.7 mph 17.3 mph N/A   Clear
4:35 AM 55.4 °F - 51.8 °F 88% 30.07 in 7.0 mi South 11.5 mph - N/A   Clear
4:55 AM 57.2 °F - 51.8 °F 82% 30.07 in 7.0 mi South 11.5 mph - N/A   Clear
5:15 AM 55.4 °F - 51.8 °F 88% 30.07 in 7.0 mi South 12.7 mph - N/A   Clear
5:35 AM 57.2 °F - 51.8 °F 82% 30.08 in 7.0 mi South 10.4 mph - N/A   Clear
5:55 AM 55.4 °F - 51.8 °F 88% 30.08 in 7.0 mi South 11.5 mph 16.1 mph N/A   Clear
6:15 AM 55.4 °F - 51.8 °F 88% 30.08 in 7.0 mi South 9.2 mph 17.3 mph N/A   Clear
6:35 AM 55.4 °F - 51.8 °F 88% 30.09 in 6.0 mi South 9.2 mph - N/A   Clear
6:55 AM 55.4 °F - 51.8 °F 88% 30.09 in 6.0 mi South 8.1 mph - N/A   Clear
7:15 AM 55.4 °F - 51.8 °F 88% 30.09 in 5.0 mi South 9.2 mph - N/A   Clear
7:35 AM 55.4 °F - 51.8 °F 88% 30.09 in 5.0 mi South 11.5 mph - N/A   Clear
7:55 AM 55.4 °F - 51.8 °F 88% 30.09 in 4.0 mi South 9.2 mph - N/A   Clear
8:15 AM 55.4 °F - 51.8 °F 88% 30.09 in 4.0 mi South 9.2 mph - N/A   Clear
8:55 AM 57.2 °F - 53.6 °F 88% 30.10 in 5.0 mi South 11.5 mph - N/A   Clear
9:55 AM 60.8 °F - 53.6 °F 77% 30.10 in 8.0 mi South 11.5 mph 17.3 mph N/A   Clear
10:15 AM 60.8 °F - 53.6 °F 77% 30.11 in 10.0 mi SSW 11.5 mph 18.4 mph N/A   Scattered Clouds
10:35 AM 62.6 °F - 53.6 °F 72% 30.10 in 10.0 mi South 10.4 mph - N/A   Mostly Cloudy
10:55 AM 62.6 °F - 53.6 °F 72% 30.09 in 10.0 mi South 12.7 mph - N/A   Partly Cloudy
11:15 AM 64.4 °F - 53.6 °F 68% 30.10 in 10.0 mi South 10.4 mph - N/A   Clear
11:35 AM 66.2 °F - 53.6 °F 64% 30.09 in 10.0 mi South 12.7 mph - N/A   Clear
11:55 AM 66.2 °F - 53.6 °F 64% 30.09 in 10.0 mi South 11.5 mph 16.1 mph N/A   Clear
12:15 PM 66.2 °F - 53.6 °F 64% 30.09 in 10.0 mi SSW 11.5 mph - N/A   Clear
12:35 PM 69.8 °F - 53.6 °F 56% 30.09 in 10.0 mi SSW 11.5 mph 16.1 mph N/A   Partly Cloudy
12:55 PM 69.8 °F - 53.6 °F 56% 30.07 in 10.0 mi SW 6.9 mph - N/A   Partly Cloudy
1:15 PM 69.8 °F - 53.6 °F 56% 30.07 in 10.0 mi SW 6.9 mph - N/A   Partly Cloudy
1:35 PM 69.8 °F - 53.6 °F 56% 30.07 in 10.0 mi WSW 9.2 mph - N/A   Scattered Clouds
1:55 PM 68.0 °F - 53.6 °F 60% 30.07 in 10.0 mi WSW 8.1 mph - N/A   Mostly Cloudy
2:15 PM 68.0 °F - 53.6 °F 60% 30.07 in 10.0 mi WSW 9.2 mph - N/A   Overcast
2:35 PM 64.4 °F - 51.8 °F 64% 30.07 in 10.0 mi NW 13.8 mph 20.7 mph N/A   Overcast
2:55 PM 62.6 °F - 53.6 °F 72% 30.08 in 10.0 mi WNW 16.1 mph - N/A   Overcast
3:15 PM 60.8 °F - 53.6 °F 77% 30.08 in 10.0 mi NNW 17.3 mph - N/A   Scattered Clouds
3:35 PM 57.2 °F - 51.8 °F 82% 30.09 in 10.0 mi NW 15.0 mph 18.4 mph N/A   Mostly Cloudy
3:55 PM 55.4 °F - 51.8 °F 88% 30.09 in 8.0 mi NNW 13.8 mph 18.4 mph N/A   Overcast
4:15 PM 53.6 °F - 48.2 °F 82% 30.08 in 10.0 mi NNW 11.5 mph 19.6 mph N/A   Overcast
4:35 PM 53.6 °F - 48.2 °F 82% 30.09 in 10.0 mi North 12.7 mph - N/A   Overcast
4:55 PM 51.8 °F - 48.2 °F 88% 30.09 in 10.0 mi NNW 10.4 mph - N/A   Overcast
5:15 PM 51.8 °F - 46.4 °F 82% 30.09 in 10.0 mi North 11.5 mph - N/A   Overcast
5:35 PM 51.8 °F - 48.2 °F 88% 30.10 in 10.0 mi NNW 9.2 mph - N/A   Overcast
5:55 PM 51.8 °F - 46.4 °F 82% 30.09 in 10.0 mi North 12.7 mph - N/A   Overcast
6:15 PM 51.8 °F - 46.4 °F 82% 30.11 in 10.0 mi North 10.4 mph - N/A   Overcast
6:35 PM 50.0 °F - 44.6 °F 82% 30.11 in 10.0 mi North 10.4 mph - N/A   Overcast
6:55 PM 50.0 °F - 44.6 °F 82% 30.12 in 10.0 mi North 11.5 mph 18.4 mph N/A   Overcast
7:15 PM 48.2 °F - 44.6 °F 87% 30.13 in 10.0 mi North 13.8 mph 20.7 mph N/A   Overcast
7:35 PM 48.2 °F - 44.6 °F 87% 30.14 in 10.0 mi North 13.8 mph - N/A   Overcast
7:55 PM 46.4 °F 40.1 °F 42.8 °F 87% 30.15 in 10.0 mi North 15.0 mph 20.7 mph N/A   Overcast
8:15 PM 46.4 °F 40.7 °F 42.8 °F 87% 30.15 in 10.0 mi North 12.7 mph - N/A   Overcast
8:35 PM 46.4 °F 41.1 °F 42.8 °F 87% 30.15 in 3.0 mi North 11.5 mph - N/A   Overcast
8:55 PM 46.4 °F 41.1 °F 42.8 °F 87% 30.15 in 9.0 mi North 11.5 mph - N/A   Overcast
9:15 PM 46.4 °F 40.7 °F 42.8 °F 87% 30.14 in 10.0 mi NNE 12.7 mph - N/A   Overcast
9:35 PM 46.4 °F 41.5 °F 44.6 °F 93% 30.15 in 10.0 mi North 10.4 mph - N/A   Overcast
9:55 PM 46.4 °F 41.5 °F 42.8 °F 87% 30.15 in 10.0 mi NNE 10.4 mph - 0.02 in   Overcast
10:15 PM 44.6 °F 40.2 °F 42.8 °F 93% 30.15 in 9.0 mi NNE 8.1 mph - 0.05 in   Overcast
10:35 PM 44.6 °F 38.8 °F 42.8 °F 93% 30.14 in 8.0 mi NNE 11.5 mph - 0.20 in   Overcast
10:55 PM 44.6 °F 40.2 °F 42.8 °F 93% 30.15 in 9.0 mi North 8.1 mph - 0.31 in   Overcast
11:15 PM 44.6 °F 40.2 °F 42.8 °F 93% 30.15 in 10.0 mi North 8.1 mph - 0.05 in   Overcast
11:35 PM 44.6 °F 39.2 °F 42.8 °F 93% 30.14 in 8.0 mi NNE 10.4 mph - 0.08 in   Overcast